• In Deutschland
  • Länderverzeichnis
  • Für 7 Tage
  • Wassertemperatur
  • Satellitenkarten
  • Wetterkarte
  • Widgets
  • user-avatar
    Anmelden

    Stündliche Wetter Smolan

    Heute, 20 November, Montag

    Zeit Temperatur Niederschläge Wind Luftdruck Luftfeuchtigkeit
    00:00 +4°C° 0,4 mm 1 m/S 649 mmHg 92%
    01:00 +4°C° 0,4 mm 1 m/S 649 mmHg 92%
    02:00 +3°C° 0,4 mm 2 m/S 649 mmHg 93%
    03:00 +2°C° 0,9 mm 2 m/S 649 mmHg 93%
    04:00 +2°C° 0,9 mm 2 m/S 649 mmHg 93%
    05:00 +1°C° 0,9 mm 2 m/S 649 mmHg 92%
    06:00 +1°C° 0,6 mm 2 m/S 649 mmHg 90%
    07:00 -1°C° 0,6 mm 3 m/S 649 mmHg 87%
    08:00 -1°C° 0,6 mm 3 m/S 649 mmHg 84%
    09:00 -2°C° 0,2 mm 4 m/S 650 mmHg 80%
    10:00 -2°C° 0,2 mm 4 m/S 650 mmHg 76%
    11:00 -2°C° 0,2 mm 4 m/S 651 mmHg 72%
    12:00 -2°C° 0,2 mm 5 m/S 651 mmHg 69%
    13:00 -2°C° 0,2 mm 5 m/S 651 mmHg 67%
    14:00 -2°C° 0,2 mm 5 m/S 651 mmHg 64%
    15:00 -2°C° 0 mm 5 m/S 652 mmHg 65%
    16:00 -3°C° 0 mm 4 m/S 652 mmHg 67%
    17:00 -4°C° 0 mm 3 m/S 652 mmHg 68%
    18:00 -4°C° 0 mm 3 m/S 652 mmHg 69%
    19:00 -4°C° 0 mm 3 m/S 652 mmHg 71%
    20:00 -5°C° 0 mm 3 m/S 652 mmHg 72%
    21:00 -5°C° 0 mm 3 m/S 653 mmHg 73%
    22:00 -6°C° 0 mm 3 m/S 653 mmHg 73%
    23:00 -6°C° 0 mm 3 m/S 653 mmHg 74%

    Morgen, 21 November, Dienstag

    Zeit Temperatur Niederschläge Wind Luftdruck Luftfeuchtigkeit
    00:00 -6°C° 0 mm 3 m/S 654 mmHg 73%
    01:00 -5°C° 0 mm 2 m/S 654 mmHg 72%
    02:00 -5°C° 0 mm 2 m/S 654 mmHg 71%
    03:00 -5°C° 0 mm 2 m/S 654 mmHg 70%
    04:00 -6°C° 0 mm 2 m/S 654 mmHg 68%
    05:00 -6°C° 0 mm 2 m/S 654 mmHg 67%
    06:00 -5°C° 0 mm 2 m/S 654 mmHg 66%
    07:00 -5°C° 0 mm 2 m/S 655 mmHg 65%
    08:00 -5°C° 0 mm 2 m/S 655 mmHg 64%
    09:00 -3°C° 0 mm 2 m/S 655 mmHg 56%
    10:00 -1°C° 0 mm 2 m/S 656 mmHg 49%
    11:00 +4°C° 0 mm 1 m/S 656 mmHg 41%
    12:00 +3°C° 0 mm 2 m/S 656 mmHg 41%
    13:00 +4°C° 0 mm 2 m/S 656 mmHg 41%
    14:00 +4°C° 0 mm 2 m/S 656 mmHg 42%
    15:00 +3°C° 0 mm 2 m/S 655 mmHg 48%
    16:00 +2°C° 0 mm 1 m/S 655 mmHg 55%
    17:00 +1°C° 0 mm 1 m/S 654 mmHg 62%
    18:00 +1°C° 0 mm 1 m/S 654 mmHg 64%
    19:00 -2°C° 0 mm 2 m/S 654 mmHg 65%
    20:00 -2°C° 0 mm 2 m/S 654 mmHg 67%
    21:00 -2°C° 0 mm 2 m/S 654 mmHg 67%
    22:00 -2°C° 0 mm 2 m/S 654 mmHg 66%
    23:00 -2°C° 0 mm 2 m/S 655 mmHg 65%

    übermorgen, 22 November, Mittwoch

    Zeit Temperatur Niederschläge Wind Luftdruck Luftfeuchtigkeit
    00:00 -2°C° 0 mm 2 m/S 654 mmHg 65%
    01:00 -2°C° 0 mm 2 m/S 654 mmHg 64%
    02:00 -2°C° 0 mm 2 m/S 654 mmHg 63%
    03:00 -2°C° 0 mm 2 m/S 654 mmHg 64%
    04:00 -1°C° 0 mm 2 m/S 654 mmHg 64%
    05:00 -1°C° 0 mm 2 m/S 654 mmHg 64%
    06:00 -1°C° 0 mm 2 m/S 654 mmHg 64%
    07:00 -1°C° 0 mm 2 m/S 654 mmHg 64%
    08:00 +1°C° 0 mm 2 m/S 655 mmHg 64%
    09:00 +3°C° 0 mm 2 m/S 655 mmHg 59%
    10:00 +5°C° 0 mm 2 m/S 656 mmHg 54%
    11:00 +7°C° 0 mm 2 m/S 657 mmHg 49%
    12:00 +8°C° 0 mm 2 m/S 657 mmHg 49%
    13:00 +8°C° 0 mm 2 m/S 657 mmHg 49%
    14:00 +9°C° 0 mm 2 m/S 657 mmHg 49%
    15:00 +7°C° 0 mm 2 m/S 656 mmHg 56%
    16:00 +7°C° 0 mm 1 m/S 656 mmHg 64%
    17:00 +5°C° 0 mm 1 m/S 656 mmHg 71%
    18:00 +4°C° 0 mm 1 m/S 656 mmHg 72%
    19:00 +4°C° 0 mm 1 m/S 656 mmHg 74%
    20:00 +3°C° 0 mm 1 m/S 657 mmHg 76%
    21:00 +3°C° 0 mm 1 m/S 657 mmHg 76%
    22:00 +3°C° 0 mm 1 m/S 657 mmHg 77%
    23:00 +3°C° 0 mm 1 m/S 658 mmHg 77%

    23 November, Donnerstag

    Zeit Temperatur Niederschläge Wind Luftdruck Luftfeuchtigkeit
    00:00 +2°C° 0 mm 1 m/S 658 mmHg 78%
    01:00 +2°C° 0 mm 1 m/S 658 mmHg 79%
    02:00 +2°C° 0 mm 1 m/S 658 mmHg 80%
    03:00 +2°C° 0 mm 1 m/S 658 mmHg 81%
    04:00 +2°C° 0 mm 1 m/S 658 mmHg 81%
    05:00 +1°C° 0 mm 1 m/S 658 mmHg 82%
    06:00 +2°C° 0 mm 1 m/S 658 mmHg 81%
    07:00 +2°C° 0 mm 1 m/S 659 mmHg 80%
    08:00 +2°C° 0 mm 1 m/S 659 mmHg 80%
    09:00 +4°C° 0 mm 1 m/S 660 mmHg 72%
    10:00 +6°C° 0 mm 1 m/S 660 mmHg 64%
    11:00 +8°C° 0 mm 1 m/S 661 mmHg 57%
    12:00 +8°C° 0 mm 1 m/S 661 mmHg 55%
    13:00 +9°C° 0 mm 1 m/S 661 mmHg 53%
    14:00 +9°C° 0 mm 1 m/S 661 mmHg 51%
    15:00 +8°C° 0 mm 1 m/S 660 mmHg 59%
    16:00 +6°C° 0 mm 1 m/S 660 mmHg 66%
    17:00 +5°C° 0 mm 1 m/S 660 mmHg 73%
    18:00 +4°C° 0 mm 1 m/S 660 mmHg 74%
    19:00 +4°C° 0 mm 1 m/S 660 mmHg 75%
    20:00 +3°C° 0 mm 1 m/S 660 mmHg 76%
    21:00 +3°C° 0 mm 1 m/S 660 mmHg 74%
    22:00 +3°C° 0 mm 1 m/S 660 mmHg 73%
    23:00 +3°C° 0 mm 1 m/S 660 mmHg 71%

    24 November, Freitag

    Zeit Temperatur Niederschläge Wind Luftdruck Luftfeuchtigkeit
    00:00 +3°C° 0 mm 1 m/S 660 mmHg 69%
    01:00 +3°C° 0 mm 1 m/S 660 mmHg 68%
    02:00 +3°C° 0 mm 1 m/S 660 mmHg 66%
    03:00 +2°C° 0 mm 1 m/S 659 mmHg 65%
    04:00 +2°C° 0 mm 1 m/S 659 mmHg 64%
    05:00 +2°C° 0 mm 1 m/S 659 mmHg 62%
    06:00 +2°C° 0 mm 1 m/S 659 mmHg 61%
    07:00 +3°C° 0 mm 1 m/S 659 mmHg 60%
    08:00 +3°C° 0 mm 1 m/S 660 mmHg 59%
    09:00 +5°C° 0 mm 1 m/S 660 mmHg 53%
    10:00 +7°C° 0 mm 1 m/S 661 mmHg 48%
    11:00 +10°C° 0 mm 1 m/S 662 mmHg 42%
    12:00 +10°C° 0 mm 1 m/S 661 mmHg 42%
    13:00 +11°C° 0 mm 1 m/S 661 mmHg 41%
    14:00 +11°C° 0 mm 1 m/S 661 mmHg 40%
    15:00 +9°C° 0 mm 1 m/S 660 mmHg 48%
    16:00 +7°C° 0 mm 1 m/S 660 mmHg 56%
    17:00 +5°C° 0 mm 0 m/S 659 mmHg 63%
    18:00 +5°C° 0 mm 1 m/S 659 mmHg 64%
    19:00 +5°C° 0 mm 1 m/S 659 mmHg 64%
    20:00 +4°C° 0 mm 1 m/S 659 mmHg 65%
    21:00 +4°C° 0 mm 1 m/S 660 mmHg 63%
    22:00 +4°C° 0 mm 1 m/S 660 mmHg 61%
    23:00 +4°C° 0 mm 1 m/S 660 mmHg 60%

    25 November, Samstag

    Zeit Temperatur Niederschläge Wind Luftdruck Luftfeuchtigkeit
    00:00 +4°C° 0 mm 1 m/S 660 mmHg 58%
    01:00 +4°C° 0 mm 1 m/S 659 mmHg 56%
    02:00 +3°C° 0 mm 1 m/S 659 mmHg 54%
    03:00 +3°C° 0 mm 1 m/S 659 mmHg 53%
    04:00 +3°C° 0 mm 1 m/S 659 mmHg 52%
    05:00 +3°C° 0 mm 1 m/S 659 mmHg 51%
    06:00 +3°C° 0 mm 1 m/S 660 mmHg 50%
    07:00 +3°C° 0 mm 1 m/S 660 mmHg 50%
    08:00 +3°C° 0 mm 1 m/S 660 mmHg 50%
    09:00 +5°C° 0 mm 1 m/S 661 mmHg 46%
    10:00 +7°C° 0 mm 1 m/S 662 mmHg 42%
    11:00 +9°C° 0 mm 1 m/S 663 mmHg 38%
    12:00 +10°C° 0 mm 1 m/S 663 mmHg 39%
    13:00 +10°C° 0 mm 1 m/S 663 mmHg 40%
    14:00 +9°C° 0 mm 2 m/S 663 mmHg 41%
    15:00 +7°C° 0 mm 2 m/S 662 mmHg 49%
    16:00 +7°C° 0 mm 1 m/S 662 mmHg 57%
    17:00 +5°C° 0 mm 1 m/S 662 mmHg 65%
    18:00 +4°C° 0 mm 1 m/S 662 mmHg 67%
    19:00 +4°C° 0 mm 1 m/S 662 mmHg 70%
    20:00 +3°C° 0 mm 1 m/S 662 mmHg 72%
    21:00 +3°C° 0 mm 1 m/S 662 mmHg 74%
    22:00 +3°C° 0 mm 1 m/S 662 mmHg 75%
    23:00 +3°C° 0 mm 1 m/S 662 mmHg 76%
    Mehr zeigen